H1 CPF 2 NER 2022 2 2 9 033 01 glonass137 H2 1705501 9137 42939 2022 2 2 0 0 0 2022 2 5 23 45 0 900 1 1 0 0 0 1 H9 10 0 59612 0.00000 0 14581321.329 -12533745.517 -16751254.381 10 0 59612 900.00000 0 13673292.859 -10536817.200 -18770540.331 10 0 59612 1800.00000 0 12838485.348 -8265596.191 -20424969.022 10 0 59612 2700.00000 0 12122534.502 -5767151.681 -21682410.726 10 0 59612 3600.00000 0 11562503.412 -3097426.805 -22518458.799 10 0 59612 4500.00000 0 11185290.648 -319156.990 -22916901.161 10 0 59612 5400.00000 0 11006485.134 2500493.563 -22870032.154 10 0 59612 6300.00000 0 11029715.609 5292479.573 -22378799.140 10 0 59612 7200.00000 0 11246521.651 7988501.209 -21452781.292 10 0 59612 8100.00000 0 11636751.302 10523601.050 -20110001.226 10 0 59612 9000.00000 0 12169468.190 12838624.314 -18376573.171 10 0 59612 9900.00000 0 12804329.693 14882440.790 -16286194.479 10 0 59612 10800.00000 0 13493377.877 16613836.967 -13879490.217 10 0 59612 11700.00000 0 14183167.547 18003000.486 -11203223.347 10 0 59612 12600.00000 0 14817141.538 19032535.911 -8309385.765 10 0 59612 13500.00000 0 15338152.858 19697970.556 -5254187.731 10 0 59612 14400.00000 0 15691027.045 20007730.253 -2096965.313 10 0 59612 15300.00000 0 15825056.281 19982587.206 1100972.735 10 0 59612 16200.00000 0 15696319.670 19654604.227 4277536.106 10 0 59612 17100.00000 0 15269731.295 19065620.730 7371058.744 10 0 59612 18000.00000 0 14520729.218 18265345.052 10321495.565 10 0 59612 18900.00000 0 13436533.618 17309134.146 13071586.769 10 0 59612 19800.00000 0 12016920.418 16255554.599 15567967.129 10 0 59612 20700.00000 0 10274477.150 15163827.973 17762198.736 10 0 59612 21600.00000 0 8234329.358 14091268.020 19611707.520 10 0 59612 22500.00000 0 5933348.020 13090817.445 21080605.781 10 0 59612 23400.00000 0 3418870.015 12208787.467 22140385.227 10 0 59612 24300.00000 0 746983.825 11482894.742 22770467.652 10 0 59612 25200.00000 0 -2019549.422 10940677.633 22958603.014 10 0 59612 26100.00000 0 -4813654.275 10598357.907 22701107.506 10 0 59612 27000.00000 0 -7566481.943 10460195.325 22002937.148 10 0 59612 27900.00000 0 -10210029.592 10518362.002 20877595.340 10 0 59612 28800.00000 0 -12679730.166 10753341.810 19346875.828 10 0 59612 29700.00000 0 -14916906.068 11134838.109 17440445.550 10 0 59612 30600.00000 0 -16870985.483 11623151.842 15195274.714 10 0 59612 31500.00000 0 -18501389.546 12170972.205 12654924.516 10 0 59612 32400.00000 0 -19779012.226 12725504.605 9868705.611 10 0 59612 33300.00000 0 -20687231.467 13230846.225 6890723.136 10 0 59612 34200.00000 0 -21222409.559 13630508.775 3778826.565 10 0 59612 35100.00000 0 -21393862.157 13869981.491 593484.720 10 0 59612 36000.00000 0 -21223297.609 13899225.472 -2603392.047 10 0 59612 36900.00000 0 -20743750.645 13674993.077 -5749659.078 10 0 59612 37800.00000 0 -19998055.874 13162873.362 -8784150.051 10 0 59612 38700.00000 0 -19036926.036 12338975.998 -11647870.813 10 0 59612 39600.00000 0 -17916716.660 11191181.417 -14285150.466 10 0 59612 40500.00000 0 -16696972.021 9719903.290 -16644726.868 10 0 59612 41400.00000 0 -15437856.347 7938330.014 -18680745.093 10 0 59612 42300.00000 0 -14197578.954 5872134.032 -20353649.232 10 0 59612 43200.00000 0 -13029921.902 3558660.107 -21630950.339 10 0 59612 44100.00000 0 -11981974.235 1045625.552 -22487855.839 10 0 59612 45000.00000 0 -11092167.856 -1610614.066 -22907748.512 10 0 59612 45900.00000 0 -10388697.192 -4347162.246 -22882506.207 10 0 59612 46800.00000 0 -9888388.446 -7096955.318 -22412656.497 10 0 59612 47700.00000 0 -9596065.294 -9791314.501 -21507363.576 10 0 59612 48600.00000 0 -9504436.926 -12362570.874 -20184247.901 10 0 59612 49500.00000 0 -9594512.401 -14746654.811 -18469042.121 10 0 59612 50400.00000 0 -9836523.225 -16885542.826 -16395089.971 10 0 59612 51300.00000 0 -10191314.694 -18729460.733 -14002697.710 10 0 59612 52200.00000 0 -10612146.842 -20238752.132 -11338350.500 10 0 59612 53100.00000 0 -11046828.623 -21385334.975 -8453808.857 10 0 59612 54000.00000 0 -11440094.829 -22153686.291 -5405102.594 10 0 59612 54900.00000 0 -11736124.999 -22541314.711 -2251441.794 10 0 59612 55800.00000 0 -11881097.532 -22558701.907 945933.858 10 0 59612 56700.00000 0 -11825670.665 -22228716.306 4124944.872 10 0 59612 57600.00000 0 -11527285.038 -21585524.591 7223877.550 10 0 59612 58500.00000 0 -10952190.131 -20673047.496 10182581.663 10 0 59612 59400.00000 0 -10077108.466 -19543025.506 12943636.820 10 0 59612 60300.00000 0 -8890466.740 -18252776.277 15453464.884 10 0 59612 61200.00000 0 -7393141.317 -16862738.337 17663366.879 10 0 59612 62100.00000 0 -5598685.852 -15433904.401 19530464.565 10 0 59612 63000.00000 0 -3533030.415 -14025251.863 21018528.881 10 0 59612 63900.00000 0 -1233663.608 -12691278.034 22098679.581 10 0 59612 64800.00000 0 1251669.438 -11479742.958 22749943.118 10 0 59612 65700.00000 0 3866700.277 -10429713.826 22959658.361 10 0 59612 66600.00000 0 6548730.681 -9569992.306 22723722.619 10 0 59612 67500.00000 0 9231000.791 -8917990.075 22046673.329 10 0 59612 68400.00000 0 11845234.724 -8479099.142 20941603.711 10 0 59612 69300.00000 0 14324258.908 -8246582.942 19429913.684 10 0 59612 70200.00000 0 16604585.264 -8201992.500 17540900.350 10 0 59612 71100.00000 0 18628852.579 -8316089.966 15311195.271 10 0 59612 72000.00000 0 20348024.839 -8550240.602 12784058.782 10 0 59612 72900.00000 0 21723255.300 -8858214.483 10008544.357 10 0 59612 73800.00000 0 22727338.624 -9188321.813 7038548.669 10 0 59612 74700.00000 0 23345690.451 -9485791.459 3931765.567 10 0 59612 75600.00000 0 23576813.489 -9695291.789 748564.165 10 0 59612 76500.00000 0 23432230.695 -9763486.610 -2449186.968 10 0 59612 77400.00000 0 22935888.544 -9641517.332 -5599326.191 10 0 59612 78300.00000 0 22123055.844 -9287305.364 -8640611.732 10 0 59612 79200.00000 0 21038764.806 -8667576.300 -11513917.003 10 0 59612 80100.00000 0 19735860.512 -7759519.187 -14163384.303 10 0 59612 81000.00000 0 18272741.432 -6552009.623 -16537514.024 10 0 59612 81900.00000 0 16710886.492 -5046343.870 -18590167.803 10 0 59612 82800.00000 0 15112273.177 -3256451.978 -20281465.926 10 0 59612 83700.00000 0 13536795.359 -1208579.803 -21578561.634 10 0 59612 84600.00000 0 12039789.320 1059547.818 -22456277.531 10 0 59612 85500.00000 0 10669771.622 3500048.633 -22897592.061 10 0 59613 0.00000 0 9466483.339 6056634.785 -22893967.092 10 0 59613 900.00000 0 8459321.374 8666724.038 -22445510.576 10 0 59613 1800.00000 0 7666223.377 11263819.707 -21560971.555 10 0 59613 2700.00000 0 7093049.924 13780065.538 -20257567.847 10 0 59613 3600.00000 0 6733490.494 16148866.442 -18560649.725 10 0 59613 4500.00000 0 6569495.506 18307467.940 -16503206.181 10 0 59613 5400.00000 0 6572215.400 20199387.253 -14125223.217 10 0 59613 6300.00000 0 6703406.312 21776595.344 -11472906.419 10 0 59613 7200.00000 0 6917242.352 23001359.343 -8597782.810 10 0 59613 8100.00000 0 7162457.309 23847669.038 -5555699.340 10 0 59613 9000.00000 0 7384724.742 24302188.388 -2405737.411 10 0 59613 9900.00000 0 7529175.342 24364692.815 790935.273 10 0 59613 10800.00000 0 7542944.623 24047974.647 3972253.081 10 0 59613 11700.00000 0 7377642.746 23377221.345 7076457.766 10 0 59613 12600.00000 0 6991641.583 22388893.229 10043296.997 10 0 59613 13500.00000 0 6352081.847 21129148.395 12815192.714 10 0 59613 14400.00000 0 5436514.984 19651881.370 15338356.618 10 0 59613 15300.00000 0 4234109.929 18016458.118 17563831.156 10 0 59613 16200.00000 0 2746373.111 16285242.479 19448436.144 10 0 59613 17100.00000 0 987350.457 14521017.563 20955603.051 10 0 59613 18000.00000 0 -1016698.126 12784409.832 22056081.226 10 0 59613 18900.00000 0 -3228139.457 11131423.131 22728502.919 10 0 59613 19800.00000 0 -5599289.222 9611185.129 22959796.610 10 0 59613 20700.00000 0 -8074161.750 8263999.721 22745440.931 10 0 59613 21600.00000 0 -10590575.973 7119785.974 22089554.417 10 0 59613 22500.00000 0 -13082531.265 6196968.143 21004819.248 10 0 59613 23400.00000 0 -15482755.424 5501862.534 19512240.109 10 0 59613 24300.00000 0 -17725319.824 5028586.260 17640742.346 10 0 59613 25200.00000 0 -19748213.656 4759491.204 15426616.499 10 0 59613 26100.00000 0 -21495770.442 4666104.566 12912819.307 10 0 59613 27000.00000 0 -22920845.948 4710536.051 10148144.061 10 0 59613 27900.00000 0 -23986656.596 4847292.024 7186275.836 10 0 59613 28800.00000 0 -24668201.369 5025419.753 4084749.672 10 0 59613 29700.00000 0 -24953207.535 5190890.596 903831.853 10 0 59613 30600.00000 0 -24842560.378 5289120.749 -2294653.856 10 0 59613 31500.00000 0 -24350198.774 5267522.142 -5448531.690 10 0 59613 32400.00000 0 -23502481.036 5077974.577 -8496487.118 10 0 59613 33300.00000 0 -22337047.835 4679113.458 -11379263.614 10 0 59613 34200.00000 0 -20901230.258 4038335.253 -14040818.954 10 0 59613 35100.00000 0 -19250070.290 3133434.763 -16429418.070 10 0 59613 36000.00000 0 -17444037.264 1953803.916 -18498640.856 10 0 59613 36900.00000 0 -15546536.504 501140.437 -20208285.104 10 0 59613 37800.00000 0 -13621314.931 -1210364.531 -21525147.128 10 0 59613 38700.00000 0 -11729872.369 -3154368.841 -22423665.142 10 0 59613 39600.00000 0 -9928986.874 -5293238.387 -22886413.230 10 0 59613 40500.00000 0 -8268457.204 -7579387.786 -22904436.774 10 0 59613 41400.00000 0 -6789156.214 -9957047.595 -22477423.239 10 0 59613 42300.00000 0 -5521475.782 -12364385.046 -21613705.324 10 0 59613 43200.00000 0 -4484227.227 -14735890.609 -20330096.672 10 0 59613 44100.00000 0 -3684042.093 -17004931.603 -18651563.386 10 0 59613 45000.00000 0 -3115297.182 -19106366.881 -16610737.733 10 0 59613 45900.00000 0 -2760565.721 -20979114.166 -14247283.332 10 0 59613 46800.00000 0 -2591574.472 -22568563.310 -11607123.980 10 0 59613 47700.00000 0 -2570625.462 -23828735.111 -8741550.975 10 0 59613 48600.00000 0 -2652421.362 -24724095.817 -5706226.169 10 0 59613 49500.00000 0 -2786216.624 -25230951.785 -2560100.085 10 0 59613 50400.00000 0 -2918202.783 -25338366.228 635733.713 10 0 59613 51300.00000 0 -2994026.396 -25048560.038 3819225.582 10 0 59613 52200.00000 0 -2961332.567 -24376780.282 6928574.837 10 0 59613 53100.00000 0 -2772225.985 -23350642.287 9903429.135 10 0 59613 54000.00000 0 -2385544.908 -22008973.295 12686054.801 10 0 59613 54900.00000 0 -1768851.512 -20400206.460 15222455.351 10 0 59613 55800.00000 0 -900054.053 -18580392.730 17463416.526 10 0 59613 56700.00000 0 231408.195 -16610913.880 19365457.867 10 0 59613 57600.00000 0 1623867.910 -14555992.270 20891672.802 10 0 59613 58500.00000 0 3263250.794 -12480101.119 22012441.386 10 0 59613 59400.00000 0 5123423.374 -10445382.940 22706002.432 10 0 59613 60300.00000 0 7167054.287 -8509183.208 22958874.428 10 0 59613 61200.00000 0 9346954.318 -6721801.395 22766117.354 10 0 59613 62100.00000 0 11607840.728 -5124552.308 22131430.528 10 0 59613 63000.00000 0 13888453.662 -3748217.702 21067084.444 10 0 59613 63900.00000 0 16123937.627 -2611952.002 19593687.618 10 0 59613 64800.00000 0 18248389.897 -1722687.017 17739792.443 10 0 59613 65700.00000 0 20197470.452 -1075059.801 15541346.995 10 0 59613 66600.00000 0 21910965.067 -651866.084 13041002.730 10 0 59613 67500.00000 0 23335194.847 -425019.577 10287290.832 10 0 59613 68400.00000 0 24425171.463 -356976.238 7333682.616 10 0 59613 69300.00000 0 25146407.704 -402562.924 4237551.935 10 0 59613 70200.00000 0 25476307.105 -511132.612 1059059.669 10 0 59613 71100.00000 0 25405074.014 -628954.395 -2140017.924 10 0 59613 72000.00000 0 24936105.444 -701736.405 -5297493.713 10 0 59613 72900.00000 0 24085847.994 -677173.950 -8351983.126 10 0 59613 73800.00000 0 22883125.668 -507414.034 -11244102.287 10 0 59613 74700.00000 0 21367966.781 -151330.956 -13917626.820 10 0 59613 75600.00000 0 19589979.342 423484.366 -16320588.320 10 0 59613 76500.00000 0 17606343.232 1239106.444 -18406286.780 10 0 59613 77400.00000 0 15479503.616 2306097.950 -20134199.064 10 0 59613 78300.00000 0 13274662.339 3622823.779 -21470765.862 10 0 59613 79200.00000 0 11057172.320 5175286.254 -22390042.047 10 0 59613 80100.00000 0 8889943.767 6937489.333 -22874198.133 10 0 59613 81000.00000 0 6830970.208 8872317.405 -22913863.554 10 0 59613 81900.00000 0 4931076.992 10932892.784 -22508305.509 10 0 59613 82800.00000 0 3231985.501 13064355.824 -21665440.236 10 0 59613 83700.00000 0 1764772.796 15205994.021 -20401676.769 10 0 59613 84600.00000 0 548789.813 17293631.853 -18741596.252 10 0 59613 85500.00000 0 -408917.914 19262182.015 -16717473.080 10 0 59614 0.00000 0 -1113664.177 21048251.874 -14368647.222 10 0 59614 900.00000 0 -1582650.102 22592697.477 -11740758.432 10 0 59614 1800.00000 0 -1843986.536 23843016.245 -8884860.332 10 0 59614 2700.00000 0 -1935254.458 24755481.630 -5856427.246 10 0 59614 3600.00000 0 -1901664.226 25296928.084 -2714276.147 10 0 59614 4500.00000 0 -1793892.725 25446112.628 480576.393 10 0 59614 5400.00000 0 -1665690.588 25194595.936 3666099.685 10 0 59614 6300.00000 0 -1571361.328 24547106.103 6780453.606 10 0 59614 7200.00000 0 -1563219.587 23521369.966 9763188.766 10 0 59614 8100.00000 0 -1689136.471 22147419.230 12556418.740 10 0 59614 9000.00000 0 -1990276.188 20466400.511 15105941.566 10 0 59614 9900.00000 0 -2499120.003 18528939.222 17362288.766 10 0 59614 10800.00000 0 -3237861.347 16393125.636 19281681.855 10 0 59614 11700.00000 0 -4217240.312 14122207.063 20826878.183 10 0 59614 12600.00000 0 -5435867.221 11782082.135 21967890.146 10 0 59614 13500.00000 0 -6880064.578 9438701.168 22682564.395 10 0 59614 14400.00000 0 -8524235.089 7155480.172 22957010.274 10 0 59614 15300.00000 0 -10331741.496 4990835.462 22785869.506 10 0 59614 16200.00000 0 -12256262.700 2995940.582 22172422.059 10 0 59614 17100.00000 0 -14243570.852 1212797.956 21128526.070 10 0 59614 18000.00000 0 -16233656.404 -327295.265 19674392.654 10 0 59614 18900.00000 0 -18163113.486 -1604824.138 17838199.468 10 0 59614 19800.00000 0 -19967686.949 -2612631.568 15655549.831 10 0 59614 20700.00000 0 -21584875.166 -3355969.308 13168787.192 10 0 59614 21600.00000 0 -22956480.135 -3852022.979 10426177.567 10 0 59614 22500.00000 0 -24030998.148 -4128931.778 7480975.200 10 0 59614 23400.00000 0 -24765750.579 -4224344.769 4390389.332 10 0 59614 24300.00000 0 -25128664.987 -4183575.382 1214471.977 10 0 59614 25200.00000 0 -25099631.176 -4057432.768 -1985051.513 10 0 59614 26100.00000 0 -24671374.596 -3899822.504 -5145985.921 10 0 59614 27000.00000 0 -23849809.804 -3765219.035 -8206879.751 10 0 59614 27900.00000 0 -22653858.604 -3706117.763 -11108224.680 10 0 59614 28800.00000 0 -21114740.164 -3770575.602 -13793616.844 10 0 59614 29700.00000 0 -19274762.681 -3999944.987 -16210856.849 10 0 59614 30600.00000 0 -17185667.154 -4426898.143 -18312966.757 10 0 59614 31500.00000 0 -14906592.718 -5073825.899 -20059104.022 10 0 59614 32400.00000 0 -12501748.644 -5951679.489 -21415354.693 10 0 59614 33300.00000 0 -10037890.251 -7059304.909 -22355390.712 10 0 59614 34200.00000 0 -7581704.028 -8383298.601 -22860978.844 10 0 59614 35100.00000 0 -5197210.642 -9898391.225 -22922331.822 10 0 59614 36000.00000 0 -2943293.563 -11568344.170 -22538295.307 10 0 59614 36900.00000 0 -871455.564 -13347321.822 -21716367.362 10 0 59614 37800.00000 0 976104.355 -15181682.807 -20472550.329 10 0 59614 38700.00000 0 2568014.682 -17012115.788 -18831038.042 10 0 59614 39600.00000 0 3884793.341 -18776030.916 -16823744.466 10 0 59614 40500.00000 0 4919404.991 -20410107.257 -14489682.788 10 0 59614 41400.00000 0 5677291.834 -21852889.889 -11874206.820 10 0 59614 42300.00000 0 6175878.036 -23047328.008 -9028129.351 10 0 59614 43200.00000 0 6443570.063 -23943147.858 -6006734.459 10 0 59614 44100.00000 0 6518296.284 -24498960.934 -2868702.917 10 0 59614 45000.00000 0 6445648.562 -24684018.991 325028.235 10 0 59614 45900.00000 0 6276705.284 -24479542.124 3512449.674 10 0 59614 46800.00000 0 6065628.665 -23879564.079 6631684.095 10 0 59614 47700.00000 0 5867138.537 -22891259.198 9622187.155 10 0 59614 48600.00000 0 5733969.984 -21534737.204 12425921.576 10 0 59614 49500.00000 0 5714422.697 -19842314.230 14988481.595 10 0 59614 50400.00000 0 5850105.902 -17857290.484 17260145.956 10 0 59614 51300.00000 0 6173974.352 -15632285.385 19196839.301 10 0 59614 52200.00000 0 6708738.545 -13227199.296 20760983.739 10 0 59614 53100.00000 0 7465716.517 -10706886.476 21922224.509 10 0 59614 54000.00000 0 8444176.044 -8138635.509 22658016.246 10 0 59614 54900.00000 0 9631195.637 -5589561.317 22954058.952 10 0 59614 55800.00000 0 11002051.017 -3124016.434 22804575.556 10 0 59614 56700.00000 0 12521111.913 -801128.166 22212425.850 10 0 59614 57600.00000 0 14143212.782 1327436.952 21189054.520 10 0 59614 58500.00000 0 15815441.206 3219389.347 19754273.966 10 0 59614 59400.00000 0 17479270.203 4843334.438 17935885.607 10 0 59614 60300.00000 0 19072946.160 6179830.199 15769146.332 10 0 59614 61200.00000 0 20534033.058 7221940.838 13296089.760 10 0 59614 62100.00000 0 21802006.783 7975264.294 10564714.754 10 0 59614 63000.00000 0 22820790.867 8457433.178 7628056.366 10 0 59614 63900.00000 0 23541126.963 8697110.810 4543156.950 10 0 59614 64800.00000 0 23922680.038 8732525.428 1369957.276 10 0 59614 65700.00000 0 23935789.124 8609605.156 -1829870.671 10 0 59614 66600.00000 0 23562789.181 8379793.287 -4994126.068 10 0 59614 67500.00000 0 22798847.694 8097637.139 -8061292.908 10 0 59614 68400.00000 0 21652279.995 7818253.375 -10971740.707 10 0 59614 69300.00000 0 20144329.391 7594777.910 -13668888.189 10 0 59614 70200.00000 0 18308420.800 7475909.199 -16100306.811 10 0 59614 71100.00000 0 16188918.729 7503649.597 -18218742.284 10 0 59614 72000.00000 0 13839441.384 7711340.987 -19983033.980 10 0 59614 72900.00000 0 11320801.214 8122078.249 -21358914.411 10 0 59614 73800.00000 0 8698657.652 8747568.072 -22319673.476 10 0 59614 74700.00000 0 6040979.833 9587481.685 -22846674.865 10 0 59614 75600.00000 0 3415424.595 10629329.201 -22929715.055 10 0 59614 76500.00000 0 886738.463 11848861.327 -22567218.353 10 0 59614 77400.00000 0 -1485708.903 13210982.003 -21766264.520 10 0 59614 78300.00000 0 -3650158.017 14671134.088 -20542448.739 10 0 59614 79200.00000 0 -5564367.741 16177100.444 -18919576.695 10 0 59614 80100.00000 0 -7197119.944 17671145.182 -16929200.729 10 0 59614 81000.00000 0 -8529259.264 19092405.648 -14610005.926 10 0 59614 81900.00000 0 -9554225.964 20379435.040 -12007057.885 10 0 59614 82800.00000 0 -10278060.992 21472789.046 -9170926.652 10 0 59614 83700.00000 0 -10718884.537 22317547.964 -6156703.739 10 0 59614 84600.00000 0 -10905871.363 22865668.301 -3022931.244 10 0 59614 85500.00000 0 -10877767.322 23078064.855 169535.913 10 0 59615 0.00000 0 -10681010.772 22926335.598 3358712.134 10 0 59615 900.00000 0 -10367539.001 22394056.455 6482686.192 10 0 59615 1800.00000 0 -9992373.390 21477591.552 9480821.153 10 0 59615 2700.00000 0 -9611085.591 20186384.327 12294931.494 10 0 59615 3600.00000 0 -9277252.429 18542717.030 14870410.164 10 0 59615 4500.00000 0 -9040007.227 16580948.267 17157285.509 10 0 59615 5400.00000 0 -8941791.084 14346260.039 19111187.510 10 0 59615 6300.00000 0 -9016399.073 11892965.966 20694205.038 10 0 59615 7200.00000 0 -9287403.797 9282450.711 21875617.926 10 0 59615 8100.00000 0 -9767022.867 6580825.592 22632490.233 10 0 59615 9000.00000 0 -10455478.246 3856397.048 22950113.709 10 0 59615 9900.00000 0 -11340874.885 1177052.279 22822293.161 10 0 59615 10800.00000 0 -12399604.395 -1392330.370 22251468.416 10 0 59615 11700.00000 0 -13597257.667 -3792339.767 21248670.416 10 0 59615 12600.00000 0 -14890009.067 -5971257.895 19833312.014 10 0 59615 13500.00000 0 -16226415.098 -7886961.735 18032817.030 10 0 59615 14400.00000 0 -17549552.968 -9508422.884 15882094.058 10 0 59615 15300.00000 0 -18799410.021 -10816743.151 13422864.540 10 0 59615 16200.00000 0 -19915424.166 -11805683.668 10702857.462 10 0 59615 17100.00000 0 -20839068.771 -12481666.139 7774885.642 10 0 59615 18000.00000 0 -21516373.170 -12863246.829 4695821.283 10 0 59615 18900.00000 0 -21900272.310 -12980086.145 1525490.513 10 0 59615 19800.00000 0 -21952685.949 -12871458.001 -1674491.506 10 0 59615 20700.00000 0 -21646238.965 -12584362.555 -4841921.789 10 0 59615 21600.00000 0 -20965549.380 -12171322.908 -7915223.195 10 0 59615 22500.00000 0 -19908028.852 -11687959.723 -10834646.338 10 0 59615 23400.00000 0 -18484161.055 -11190447.155 -13543435.608 10 0 59615 24300.00000 0 -16717245.365 -10732958.504 -15988936.126 10 0 59615 25200.00000 0 -14642615.908 -10365210.272 -18123619.719 10 0 59615 26100.00000 0 -12306368.103 -10130209.025 -19906009.695 10 0 59615 27000.00000 0 -9763645.526 -10062296.671 -21301486.505 10 0 59615 27900.00000 0 -7076558.169 -10185576.969 -22282958.868 10 0 59615 28800.00000 0 -4311818.612 -10512789.853 -22831387.611 10 0 59615 29700.00000 0 -1538194.096 -11044681.131 -22936152.528 10 0 59615 30600.00000 0 1176120.033 -11769894.246 -22595255.537 10 0 59615 31500.00000 0 3766096.808 -12665388.757 -21815356.541 10 0 59615 32400.00000 0 6172336.920 -13697368.092 -20611641.564 10 0 59615 33300.00000 0 8343289.454 -14822677.792 -19007525.790 10 0 59615 34200.00000 0 10237142.611 -15990615.606 -17034197.295 10 0 59615 35100.00000 0 11823306.893 -17145077.575 -14730010.204 10 0 59615 36000.00000 0 13083430.140 -18226950.015 -12139738.867 10 0 59615 36900.00000 0 14011903.305 -19176646.846 -9313707.433 10 0 59615 37800.00000 0 14615837.201 -19936685.528 -6306811.616 10 0 59615 38700.00000 0 14914512.585 -20454193.081 -3177451.604 10 0 59615 39600.00000 0 14938327.945 -20683236.470 13602.989 10 0 59615 40500.00000 0 14727290.515 -20586878.980 3204393.920 10 0 59615 41400.00000 0 14329115.174 -20138875.630 6332977.725 10 0 59615 42300.00000 0 13797012.280 -19324935.893 9338628.035 10 0 59615 43200.00000 0 13187258.494 -18143500.142 12163013.305 10 0 59615 44100.00000 0 12556653.612 -16605996.659 14751327.056 10 0 59615 45000.00000 0 11959970.992 -14736567.844 17053348.678 10 0 59615 45900.00000 0 11447509.248 -12571276.442 19024414.520 10 0 59615 46800.00000 0 11062848.376 -10156824.124 20626280.818 10 0 59615 47700.00000 0 10840904.756 -7548835.174 21827862.181 10 0 59615 48600.00000 0 10806366.757 -4809775.787 22605831.887 10 0 59615 49500.00000 0 10972576.721 -2006594.532 22945072.845 10 0 59615 50400.00000 0 11340906.393 791818.962 22838970.818 10 0 59615 51300.00000 0 11900652.240 3517252.675 22289544.438 10 0 59615 52200.00000 0 12629455.534 6104760.633 21307409.419 10 0 59615 53100.00000 0 13494230.038 8495114.549 19911577.374 10 0 59615 54000.00000 0 14452559.068 10637017.869 18129092.652 10 0 59615 54900.00000 0 15454503.866 12488990.969 15994513.525 10 0 59615 55800.00000 0 16444747.907 14020849.713 13549247.128 10 0 59615 56700.00000 0 17364987.379 15214716.406 10840750.307 10 0 59615 57600.00000 0 18156467.456 16065521.507 7921611.294 10 0 59615 58500.00000 0 18762557.460 16580975.664 4848529.711 10 0 59615 59400.00000 0 19131256.025 16781013.867 1681214.560 10 0 59615 60300.00000 0 19217520.009 16696735.781 -1518778.312 10 0 59615 61200.00000 0 18985318.069 16368887.542 -4689246.197 10 0 59615 62100.00000 0 18409321.292 15845949.842 -7768553.149 10 0 59615 63000.00000 0 17476158.486 15181913.809 -10696833.018 10 0 59615 63900.00000 0 16185182.172 14433839.385 -13417157.762 10 0 59615 64800.00000 0 14548711.959 13659300.130 -15876647.807 10 0 59615 65700.00000 0 12591744.065 12913823.035 -18027502.461 10 0 59615 66600.00000 0 10351138.369 12248431.959 -19827930.070 10 0 59615 67500.00000 0 7874316.213 11707398.737 -21242959.896 10 0 59615 68400.00000 0 5217522.754 11326296.979 -22245120.133 10 0 59615 69300.00000 0 2443725.779 11130440.596 -22814969.190 10 0 59615 70200.00000 0 -379762.009 11133772.739 -22941470.386 10 0 59615 71100.00000 0 -3183838.958 11338251.706 -22622203.198 10 0 59615 72000.00000 0 -5900242.899 11733759.441 -21863407.302 10 0 59615 72900.00000 0 -8464143.581 12298536.254 -20679858.840 10 0 59615 73800.00000 0 -10816592.163 13000123.301 -19094581.404 10 0 59615 74700.00000 0 -12906726.669 13796773.025 -17138397.360 10 0 59615 75600.00000 0 -14693642.707 14639268.103 -14849328.117 10 0 59615 76500.00000 0 -16147852.524 15473072.285 -12271854.771 10 0 59615 77400.00000 0 -17252272.597 16240722.377 -9456053.399 10 0 59615 78300.00000 0 -18002699.729 16884360.533 -6456621.638 10 0 59615 79200.00000 0 -18407756.914 17348299.861 -3331815.431 10 0 59615 80100.00000 0 -18488312.452 17581514.936 -142316.748 10 0 59615 81000.00000 0 -18276397.880 17539951.859 3049945.569 10 0 59615 81900.00000 0 -17813671.352 17188560.039 6182998.716 10 0 59615 82800.00000 0 -17149492.082 16502959.609 9196028.898 10 0 59615 83700.00000 0 -16338687.757 15470673.703 12030560.824 10 0 59615 84600.00000 0 -15439109.587 14091873.117 14631590.811 10 0 59615 85500.00000 0 -14509078.352 12379601.380 16948651.444 99